Location: downtown San Diego
(32.7310°N, 117.1990°W)
Time: 08:31:35
(UTC-08:00)

USA 238 DEB - Pass Details

Date: 19 May 2017
Orbit: 1076 x 1136 km, 63.4° (Epoch: 19 November)

Event Time Altitude Azimuth Distance (km) Brightness Sun altitude
Rises 20:50:48 0° 325° (NW) 3,944 8.1 -13.1°
Reaches altitude 10° 20:53:30 10° 321° (NW) 2,991 7.3 -13.5°
Maximum altitude 21:00:27 58° 245° (WSW) 1,298 4.3 -14.7°
Enters shadow 21:07:11 11° 169° (SSE) 2,912 5.5 -15.9°
